Regional Weather Roundup
Issued by NWS Midland/Odessa, TX

Skip options and go directly to product.
Home | Oldest Version | Previous Version | Current Version | All | Text Only | Save Text | Print | Product List | Glossary Off

Skip product version selection by date and time.   

203
ASUS44 KMAF 280910
RWRMAF
MIDLAND AREA WEATHER ROUNDUP
NATIONAL WEATHER SERVICE MIDLAND TX
400 AM CDT TUE MAR 28 2017

...IN SOUTHWEST TEXAS AND SOUTHEAST NEW MEXICO...

CITY           SKY/WX    TMP DP  RH WIND       PRES   REMARKS
ALPINE         CLEAR     64  45  51 SW5       29.84F
ANDREWS        FAIR      55  40  58 SE10      29.76F
ARTESIA        CLOUDY    59  28  31 S7        29.73F
BIG SPRING     CLOUDY    65  57  76 SE16G24   29.78F
CARLSBAD       CLOUDY    58  28  32 SE8       29.72F
DRYDEN           N/A     67  64  90 E8        29.73F
FORT STOCKTON  CLEAR     65  60  84 S17       29.72F
GUAD PASS      CLEAR     59  25  27 SW10      29.84F
HOBBS          CLEAR     54  36  50 E5        29.77F
MARFA          CLEAR     52  36  54 NW8       29.85R
MIDLAND AIRPK  CLOUDY    65  52  62 SE13      29.75F
MIDLAND INTL   MOCLDY    64  51  62 SE14      29.74F
ODESSA         CLEAR     62  45  53 SE14      29.75F
PECOS          CLOUDY    59  39  47 CALM      29.71S
PRESIDIO       FAIR      67  33  27 N9        29.74S
SEMINOLE       CLEAR     50  40  67 E5        29.77F
SNYDER         MOCLDY    57  51  80 SE7       29.80F
WINK           CLOUDY    65  48  54 SE14      29.69F
$$
...OTHER STATIONS IN TEXAS...

CITY           SKY/WX    TMP DP  RH WIND       PRES   REMARKS
ABILENE        MOCLDY    62  57  83 SE15      29.80F
AMARILLO       MOCLDY    51  45  79 SE24G31   29.87S
AUSTIN         CLOUDY    71  68  90 E6        29.82F
BROWNSVILLE    CLOUDY    74  72  93 SE7       29.79F
CORPUS CHRISTI MOCLDY    73  72  96 SE16      29.78F
DALLAS FTW     MOCLDY    63  56  78 E6        29.85F
DEL RIO        CLOUDY    71  68  90 SE16      29.72F
EL PASO        PTCLDY    63  27  25 S5        29.77F
HOUSTON INT    CLOUDY    71  69  93 SE5       29.86F FOG
LUBBOCK        MOCLDY    55  45  68 E10       29.79F
SAN ANGELO     CLEAR     61  54  77 E5        29.77F
SAN ANTONIO    CLOUDY    70  66  87 SE9       29.82F
WACO           MOCLDY    62  59  90 E7        29.84F
WICHITA FALLS  NOT AVBL
$$
...OTHER LOCATIONS IN NEW MEXICO...

CITY           SKY/WX    TMP DP  RH WIND       PRES   REMARKS
ALAMAGORDO     CLOUDY    64  32  29 W15G24    29.80F
ALBUQUERQUE    CLOUDY    50  37  61 CALM      29.82F
CANNON AFB     CLOUDY    52  40  63 E8        29.82F
CLOVIS         CLOUDY    48  37  66 NE6       29.83F
HOLLOMAN AFB   PTCLDY    64  35  34 CALM      29.82F
ROSWELL        CLOUDY    61  27  27 NW13        N/A
RUIDOSO        CLOUDY    46  32  57 W15       29.91F
SANTA FE       CLOUDY    40  39  97 NW6       29.85S WCI  36
TRUTH OR CONSE MOCLDY    55  30  38 NW8       29.78F
TUCUMCARI      MOCLDY    64  33  31 S20G29    29.80R
$$

  • National Weather Service
  • Southern Region Headquarters
  • 819 Taylor Street, Room 10A06
  • Fort Worth, TX 76102
  • Page Author: NWS Fort Worth
  • Web Master: SR-SRH.Webmaster@noaa.gov
  •  
  • Page last modified: 30-Sep-2016 6:36 PM UTC
USA.gov is the U.S. government's official web portal to all federal, state and local government web resources and services.